History for Miami, FL

Saturday, January 19, 2013 — View Current Conditions

Jump to Data:

Date:
Airport Code:
Recently Viewed Airport Codes: KMIA
Daily Summary
  Actual Average Record
Temperature
Mean Temperature 69°F 68°F  
Max Temperature 76°F 76°F 88°F (1987)
Min Temperature 61°F 60°F 36°F (1977)
Degree Days
Heating Degree Days 0 2  
Month to date heating degree days 4 38  
Since 1 July heating degree days 20 75  
Cooling Degree Days 4 5  
Month to date cooling degree days 182 95  
Year to date cooling degree days 182 95  
Growing Degree Days 18 (Base 50)    
Moisture
Dew Point 63°F    
Average Humidity 85    
Maximum Humidity 100    
Minimum Humidity 69    
Precipitation
Precipitation 0.21 in 0.05 in 1.44 in (1940)
Month to date precipitation 0.54 0.95  
Year to date precipitation 0.54 0.95  
Snow
Snow 0.00 in in in ()
Month to date snowfall 0.0  
Since 1 July snowfall 0.0  
Snow Depth 0.00 in    
Sea Level Pressure
Sea Level Pressure 30.16 in    
Wind
Wind Speed 4 mph (NNW)    
Max Wind Speed 10 mph    
Max Gust Speed 21 mph    
Visibility 8 miles    
Events Rain    
T = Trace of Precipitation, MM = Missing Value Source: NWS Daily Summary

Show full METARS

(help) - Comma Delimited File

Hourly Observations

Time(EST) Temperature Dew Point Humidity Sea Level Pressure Visibility Wind Direction Wind Speed Gust Speed Precipitation Events Conditions
12:53 AM 63.0°F 59.0°F 87% 30.18 in 8.0 miles Calm Calm - 0.01 in Rain Light Rain
1:53 AM 63.0°F 60.1°F 90% 30.16 in 10.0 miles WNW 4.6 mph - 0.00 in   Overcast
2:53 AM 63.0°F 60.1°F 90% 30.15 in 10.0 miles Calm Calm - 0.00 in   Overcast
3:53 AM 63.0°F 60.1°F 90% 30.15 in 7.0 miles WNW 4.6 mph - 0.00 in Rain Light Rain
4:53 AM 62.1°F 60.1°F 93% 30.16 in 6.0 miles West 6.9 mph - 0.07 in Rain Light Rain
5:53 AM 61.0°F 60.1°F 97% 30.17 in 6.0 miles West 6.9 mph - 0.02 in Rain Light Rain
6:31 AM 62.6°F 60.8°F 94% 30.17 in 4.0 miles West 4.6 mph - 0.03 in Rain Light Rain
6:53 AM 62.1°F 61.0°F 96% 30.18 in 4.0 miles West 5.8 mph - 0.05 in Rain Light Rain
7:05 AM 62.6°F 60.8°F 94% 30.18 in 2.0 miles West 5.8 mph - 0.03 in Rain Light Rain
7:38 AM 62.6°F 62.6°F 100% 30.18 in 3.0 miles North 5.8 mph - 0.05 in Rain Light Rain
7:53 AM 63.0°F 63.0°F 100% 30.18 in 4.0 miles NNW 4.6 mph - 0.06 in Rain Light Rain
8:13 AM 62.6°F 62.6°F 100% 30.20 in 5.0 miles NNW 3.5 mph - N/A   Overcast
8:53 AM 64.9°F 64.0°F 97% 30.21 in 5.0 miles North 5.8 mph - N/A   Overcast
9:03 AM 64.4°F 64.4°F 100% 30.21 in 5.0 miles North 6.9 mph - N/A   Mostly Cloudy
9:53 AM 68.7°F 63.0°F 82% 30.22 in 10.0 miles North 8.1 mph - N/A   Mostly Cloudy
10:53 AM 70.0°F 64.0°F 81% 30.22 in 10.0 miles Variable 5.8 mph - N/A   Mostly Cloudy
11:53 AM 72.0°F 64.0°F 76% 30.19 in 10.0 miles Variable 3.5 mph - N/A   Overcast
12:53 PM 73.0°F 64.9°F 76% 30.16 in 10.0 miles Variable 3.5 mph - N/A   Overcast
1:53 PM 73.9°F 64.0°F 71% 30.13 in 10.0 miles Calm Calm - N/A   Mostly Cloudy
2:21 PM 75.2°F 62.6°F 65% 30.11 in 10.0 miles Calm Calm - N/A   Mostly Cloudy
2:39 PM 75.2°F 64.4°F 69% 30.11 in 10.0 miles NE 4.6 mph - N/A   Mostly Cloudy
2:53 PM 75.0°F 64.0°F 69% 30.11 in 10.0 miles Calm Calm - N/A   Mostly Cloudy
3:53 PM 73.9°F 64.9°F 73% 30.11 in 10.0 miles NE 4.6 mph - N/A   Mostly Cloudy
4:53 PM 73.0°F 64.0°F 73% 30.11 in 10.0 miles NE 8.1 mph - N/A   Mostly Cloudy
5:53 PM 73.0°F 64.0°F 73% 30.11 in 10.0 miles Calm Calm - N/A   Mostly Cloudy
6:53 PM 72.0°F 64.9°F 78% 30.13 in 10.0 miles NNE 4.6 mph - N/A   Mostly Cloudy
7:53 PM 71.1°F 64.9°F 81% 30.14 in 10.0 miles NE 3.5 mph - N/A   Mostly Cloudy
8:53 PM 70.0°F 64.0°F 81% 30.15 in 10.0 miles Calm Calm - N/A   Scattered Clouds
9:53 PM 70.0°F 64.9°F 84% 30.14 in 10.0 miles Calm Calm - N/A   Partly Cloudy
10:53 PM 68.0°F 64.9°F 90% 30.13 in 10.0 miles Calm Calm - N/A   Clear
11:53 PM 66.9°F 64.9°F 93% 30.12 in 10.0 miles Calm Calm - N/A   Partly Cloudy